Time,TemperatureF,DewpointF,PressureIn,WindDirection,WindDirectionDegrees,WindSpeedMPH,WindSpeedGustMPH,Humidity,HourlyPrecipIn,Conditions,Clouds,dailyrainin,SoftwareType,DateUTC
2013-02-08 00:03:00,28.9,24.7,30.28,NE,42,6.0,9.0,84,0.00,,SKC,0.00,VWS V14.01,2013-02-08 06:03:00,
2013-02-08 00:07:00,28.8,24.6,30.28,NNE,32,4.0,9.0,84,0.00,,SKC,0.00,VWS V14.01,2013-02-08 06:07:00,
2013-02-08 00:15:00,28.7,24.2,30.28,NNE,19,4.0,9.0,83,0.00,,SKC,0.00,VWS V14.01,2013-02-08 06:15:00,
2013-02-08 00:23:00,28.7,24.2,30.29,NE,37,5.0,9.0,83,0.00,,SKC,0.00,VWS V14.01,2013-02-08 06:23:00,
2013-02-08 00:29:00,28.7,24.5,30.29,NNE,13,3.0,9.0,84,0.00,,SKC,0.00,VWS V14.01,2013-02-08 06:29:00,
2013-02-08 00:31:00,28.7,24.5,30.29,NNE,32,5.0,5.0,84,0.00,,SKC,0.00,VWS V14.01,2013-02-08 06:31:00,
2013-02-08 00:35:00,28.7,24.5,30.29,NNE,28,4.0,10.0,84,0.00,,SKC,0.00,VWS V14.01,2013-02-08 06:35:00,
2013-02-08 00:39:00,28.7,24.5,30.29,North,351,5.0,10.0,84,0.00,,SKC,0.00,VWS V14.01,2013-02-08 06:39:00,
2013-02-08 00:43:00,28.8,24.6,30.30,NNE,30,6.0,10.0,84,0.00,,SKC,0.00,VWS V14.01,2013-02-08 06:43:00,
2013-02-08 00:51:00,28.8,24.6,30.30,NNE,12,5.0,10.0,84,0.00,,SKC,0.00,VWS V14.01,2013-02-08 06:51:00,
2013-02-08 00:59:00,28.7,24.5,30.29,North,355,3.0,10.0,84,0.00,,SKC,0.00,VWS V14.01,2013-02-08 06:59:00,
2013-02-08 01:07:00,28.5,23.7,30.30,North,360,5.0,8.0,82,0.00,,SKC,0.00,VWS V14.01,2013-02-08 07:07:00,
2013-02-08 01:15:00,28.4,23.6,30.30,North,355,3.0,8.0,82,0.00,,SKC,0.00,VWS V14.01,2013-02-08 07:15:00,
2013-02-08 01:23:00,28.3,23.5,30.29,North,355,6.0,10.0,82,0.00,,SKC,0.00,VWS V14.01,2013-02-08 07:23:00,
2013-02-08 01:29:00,28.0,23.2,30.29,North,355,6.0,10.0,82,0.00,,SKC,0.00,VWS V14.01,2013-02-08 07:29:00,
2013-02-08 01:35:00,27.7,22.9,30.29,NNE,15,6.0,8.0,82,0.00,,SKC,0.00,VWS V14.01,2013-02-08 07:35:00,
2013-02-08 01:43:00,27.2,22.7,30.29,NNW,345,3.0,8.0,83,0.00,,SKC,0.00,VWS V14.01,2013-02-08 07:43:00,
2013-02-08 01:47:00,27.0,22.5,30.29,North,5,4.0,8.0,83,0.00,,SKC,0.00,VWS V14.01,2013-02-08 07:47:00,
2013-02-08 01:55:00,26.5,22.3,30.29,North,355,2.0,8.0,84,0.00,,SKC,0.00,VWS V14.01,2013-02-08 07:55:00,
2013-02-08 01:59:00,26.5,22.6,30.29,NNW,335,2.0,8.0,85,0.00,,SKC,0.00,VWS V14.01,2013-02-08 07:59:00,
2013-02-08 02:03:00,26.5,22.6,30.29,NNW,336,1.0,4.0,85,0.00,,SKC,0.00,VWS V14.01,2013-02-08 08:03:00,
2013-02-08 02:11:00,26.7,22.8,30.30,NNW,334,1.0,7.0,85,0.00,,SKC,0.00,VWS V14.01,2013-02-08 08:11:00,
2013-02-08 02:15:00,26.7,22.8,30.30,NW,322,3.0,7.0,85,0.00,,SKC,0.00,VWS V14.01,2013-02-08 08:15:00,
2013-02-08 02:19:00,26.9,23.0,30.30,NW,324,3.0,7.0,85,0.00,,SKC,0.00,VWS V14.01,2013-02-08 08:19:00,
2013-02-08 02:27:00,27.1,23.2,30.30,North,349,3.0,7.0,85,0.00,,SKC,0.00,VWS V14.01,2013-02-08 08:27:00,
2013-02-08 02:29:00,27.1,23.2,30.30,North,355,3.0,7.0,85,0.00,,SKC,0.00,VWS V14.01,2013-02-08 08:29:00,
2013-02-08 02:35:00,27.1,23.2,30.30,NNW,344,2.0,6.0,85,0.00,,SKC,0.00,VWS V14.01,2013-02-08 08:35:00,
2013-02-08 02:39:00,27.1,23.2,30.31,North,355,2.0,6.0,85,0.00,,SKC,0.00,VWS V14.01,2013-02-08 08:39:00,
2013-02-08 02:47:00,27.1,23.2,30.31,North,355,3.0,6.0,85,0.00,,SKC,0.00,VWS V14.01,2013-02-08 08:47:00,
2013-02-08 02:55:00,27.2,23.3,30.31,North,5,5.0,6.0,85,0.00,,SKC,0.00,VWS V14.01,2013-02-08 08:55:00,
2013-02-08 02:59:00,27.3,23.4,30.31,North,350,1.0,8.0,85,0.00,,SKC,0.00,VWS V14.01,2013-02-08 08:59:00,
2013-02-08 03:07:00,27.3,23.4,30.31,North,355,2.0,4.0,85,0.00,,SKC,0.00,VWS V14.01,2013-02-08 09:07:00,
2013-02-08 03:15:00,27.2,23.6,30.32,North,355,3.0,5.0,86,0.00,,SKC,0.00,VWS V14.01,2013-02-08 09:15:00,
2013-02-08 03:19:00,27.2,23.6,30.32,North,5,3.0,5.0,86,0.00,,SKC,0.00,VWS V14.01,2013-02-08 09:19:00,
2013-02-08 03:23:00,27.3,23.4,30.31,North,5,4.0,5.0,85,0.00,,SKC,0.00,VWS V14.01,2013-02-08 09:23:00,
2013-02-08 03:27:00,27.3,23.4,30.31,North,360,3.0,5.0,85,0.00,,SKC,0.00,VWS V14.01,2013-02-08 09:27:00,
2013-02-08 03:29:00,27.2,23.3,30.31,NNE,30,3.0,5.0,85,0.00,,SKC,0.00,VWS V14.01,2013-02-08 09:29:00,
2013-02-08 03:35:00,27.3,23.4,30.31,NE,38,2.0,5.0,85,0.00,,SKC,0.00,VWS V14.01,2013-02-08 09:35:00,
2013-02-08 03:43:00,27.2,23.3,30.31,NNE,13,2.0,5.0,85,0.00,,SKC,0.00,VWS V14.01,2013-02-08 09:43:00,
2013-02-08 03:51:00,27.3,23.4,30.31,NNE,12,0.0,5.0,85,0.00,,SKC,0.00,VWS V14.01,2013-02-08 09:51:00,
2013-02-08 03:55:00,27.2,23.3,30.31,NNE,32,3.0,5.0,85,0.00,,SKC,0.00,VWS V14.01,2013-02-08 09:55:00,
2013-02-08 03:59:00,27.2,23.3,30.31,NNE,26,1.0,5.0,85,0.00,,SKC,0.00,VWS V14.01,2013-02-08 09:59:00,
2013-02-08 04:03:00,27.3,23.4,30.31,North,355,0.0,4.0,85,0.00,,SKC,0.00,VWS V14.01,2013-02-08 10:03:00,
2013-02-08 04:11:00,27.4,23.5,30.31,NNE,20,3.0,7.0,85,0.00,,SKC,0.00,VWS V14.01,2013-02-08 10:11:00,
2013-02-08 04:19:00,27.4,23.5,30.32,North,355,3.0,7.0,85,0.00,,SKC,0.00,VWS V14.01,2013-02-08 10:19:00,
2013-02-08 04:27:00,27.4,23.5,30.31,NE,36,2.0,8.0,85,0.00,,SKC,0.00,VWS V14.01,2013-02-08 10:27:00,
2013-02-08 04:29:00,27.3,23.4,30.32,NE,37,3.0,8.0,85,0.00,,SKC,0.00,VWS V14.01,2013-02-08 10:29:00,
2013-02-08 04:35:00,27.4,23.5,30.31,NNE,18,2.0,5.0,85,0.00,,SKC,0.00,VWS V14.01,2013-02-08 10:35:00,
2013-02-08 04:43:00,27.4,23.5,30.31,North,9,3.0,9.0,85,0.00,,SKC,0.00,VWS V14.01,2013-02-08 10:43:00,
2013-02-08 04:47:00,27.4,23.5,30.31,North,5,4.0,9.0,85,0.00,,SKC,0.00,VWS V14.01,2013-02-08 10:47:00,
2013-02-08 04:51:00,27.4,23.8,30.32,NNE,28,2.0,9.0,86,0.00,,SKC,0.00,VWS V14.01,2013-02-08 10:51:00,
2013-02-08 04:55:00,27.5,23.9,30.31,NE,51,2.0,9.0,86,0.00,,SKC,0.00,VWS V14.01,2013-02-08 10:55:00,
2013-02-08 04:59:00,27.4,23.8,30.32,NE,46,1.0,9.0,86,0.00,,SKC,0.00,VWS V14.01,2013-02-08 10:59:00,
2013-02-08 05:03:00,27.4,23.8,30.32,NNE,32,4.0,7.0,86,0.00,,SKC,0.00,VWS V14.01,2013-02-08 11:03:00,
2013-02-08 05:07:00,27.3,23.7,30.32,North,11,2.0,7.0,86,0.00,,SKC,0.00,VWS V14.01,2013-02-08 11:07:00,
2013-02-08 05:11:00,27.2,23.6,30.32,NNE,30,3.0,7.0,86,0.00,,SKC,0.00,VWS V14.01,2013-02-08 11:11:00,
2013-02-08 05:19:00,27.1,23.5,30.32,NNE,24,0.0,7.0,86,0.00,,SKC,0.00,VWS V14.01,2013-02-08 11:19:00,
2013-02-08 05:27:00,27.1,23.5,30.32,NNE,28,0.0,7.0,86,0.00,,SKC,0.00,VWS V14.01,2013-02-08 11:27:00,
2013-02-08 05:29:00,27.1,23.5,30.33,NNE,28,0.0,7.0,86,0.00,,SKC,0.00,VWS V14.01,2013-02-08 11:29:00,
2013-02-08 05:31:00,27.2,23.6,30.33,North,360,3.0,3.0,86,0.00,,SKC,0.00,VWS V14.01,2013-02-08 11:31:00,
2013-02-08 05:35:00,27.2,23.6,30.33,North,5,1.0,4.0,86,0.00,,SKC,0.00,VWS V14.01,2013-02-08 11:35:00,
2013-02-08 05:39:00,27.2,23.9,30.33,NNE,12,2.0,4.0,87,0.00,,SKC,0.00,VWS V14.01,2013-02-08 11:39:00,
2013-02-08 05:43:00,27.2,23.9,30.33,NNE,15,2.0,4.0,87,0.00,,SKC,0.00,VWS V14.01,2013-02-08 11:43:00,
2013-02-08 05:51:00,27.1,23.8,30.33,NNE,29,2.0,5.0,87,0.00,,SKC,0.00,VWS V14.01,2013-02-08 11:51:00,
2013-02-08 05:59:00,27.0,23.6,30.33,NNE,13,1.0,5.0,87,0.00,,SKC,0.00,VWS V14.01,2013-02-08 11:59:00,
2013-02-08 06:03:00,26.9,23.6,30.33,North,9,1.0,2.0,87,0.00,,SKC,0.00,VWS V14.01,2013-02-08 12:03:00,
2013-02-08 06:07:00,26.9,23.6,30.33,North,9,1.0,2.0,87,0.00,,SKC,0.00,VWS V14.01,2013-02-08 12:07:00,
2013-02-08 06:11:00,26.9,23.6,30.34,NNE,21,2.0,3.0,87,0.00,,SKC,0.00,VWS V14.01,2013-02-08 12:11:00,
2013-02-08 06:15:00,26.9,23.6,30.34,ENE,59,0.0,4.0,87,0.00,,SKC,0.00,VWS V14.01,2013-02-08 12:15:00,
2013-02-08 06:23:00,26.8,23.5,30.34,NE,48,0.0,4.0,87,0.00,,SKC,0.00,VWS V14.01,2013-02-08 12:23:00,
2013-02-08 06:29:00,26.8,23.7,30.34,NE,40,3.0,5.0,88,0.00,,SKC,0.00,VWS V14.01,2013-02-08 12:29:00,
2013-02-08 06:31:00,26.7,23.4,30.34,ENE,65,3.0,4.0,87,0.00,,SKC,0.00,VWS V14.01,2013-02-08 12:31:00,
2013-02-08 06:35:00,26.7,23.4,30.34,East,80,2.0,4.0,87,0.00,,SKC,0.00,VWS V14.01,2013-02-08 12:35:00,
2013-02-08 06:39:00,26.7,23.6,30.34,East,100,2.0,5.0,88,0.00,,SKC,0.00,VWS V14.01,2013-02-08 12:39:00,
2013-02-08 06:47:00,26.5,23.4,30.34,ENE,76,0.0,5.0,88,0.00,,SKC,0.00,VWS V14.01,2013-02-08 12:47:00,
2013-02-08 06:51:00,26.5,23.4,30.34,ENE,76,0.0,5.0,88,0.00,,SKC,0.00,VWS V14.01,2013-02-08 12:51:00,
2013-02-08 06:59:00,26.5,23.4,30.35,ENE,76,0.0,5.0,88,0.00,,SKC,0.00,VWS V14.01,2013-02-08 12:59:00,
2013-02-08 07:08:00,26.4,23.3,30.35,ENE,76,0.0,2.0,88,0.00,,SKC,0.00,VWS V14.01,2013-02-08 13:08:00,
2013-02-08 07:12:00,26.3,23.2,30.35,ENE,75,2.0,4.0,88,0.00,,SKC,0.00,VWS V14.01,2013-02-08 13:12:00,
2013-02-08 07:16:00,26.3,23.2,30.35,ENE,74,2.0,4.0,88,0.00,,SKC,0.00,VWS V14.01,2013-02-08 13:16:00,
2013-02-08 07:20:00,26.2,23.1,30.35,ENE,68,1.0,4.0,88,0.00,,SKC,0.00,VWS V14.01,2013-02-08 13:20:00,
2013-02-08 07:28:00,26.1,23.0,30.35,NE,52,0.0,4.0,88,0.00,,SKC,0.00,VWS V14.01,2013-02-08 13:28:00,
2013-02-08 07:29:00,26.1,23.0,30.34,NE,53,0.0,4.0,88,0.00,,SKC,0.00,VWS V14.01,2013-02-08 13:29:00,
2013-02-08 07:32:00,26.0,22.9,30.35,NE,53,0.0,0.0,88,0.00,,SKC,0.00,VWS V14.01,2013-02-08 13:32:00,
2013-02-08 07:40:00,26.1,23.0,30.34,East,85,2.0,3.0,88,0.00,,SKC,0.00,VWS V14.01,2013-02-08 13:40:00,
2013-02-08 07:44:00,26.1,23.0,30.34,South,170,0.0,3.0,88,0.00,,SKC,0.00,VWS V14.01,2013-02-08 13:44:00,
2013-02-08 07:48:00,26.1,23.0,30.34,East,96,5.0,5.0,88,0.00,,SKC,0.00,VWS V14.01,2013-02-08 13:48:00,
2013-02-08 07:52:00,26.1,23.0,30.34,East,94,5.0,5.0,88,0.00,,SKC,0.00,VWS V14.01,2013-02-08 13:52:00,
2013-02-08 07:59:00,26.1,23.3,30.34,East,96,5.0,6.0,89,0.00,,SKC,0.00,VWS V14.01,2013-02-08 13:59:00,
2013-02-08 08:00:00,26.1,23.3,30.34,East,93,3.0,6.0,89,0.00,,SKC,0.00,VWS V14.01,2013-02-08 14:00:00,
2013-02-08 08:08:00,26.0,23.2,30.35,SSE,155,2.0,6.0,89,0.00,,SKC,0.00,VWS V14.01,2013-02-08 14:08:00,
2013-02-08 08:12:00,25.9,23.1,30.35,ENE,74,2.0,6.0,89,0.00,,SKC,0.00,VWS V14.01,2013-02-08 14:12:00,
2013-02-08 08:16:00,25.8,23.0,30.35,ESE,114,1.0,8.0,89,0.00,,SKC,0.00,VWS V14.01,2013-02-08 14:16:00,
2013-02-08 08:20:00,25.7,22.9,30.35,ESE,116,2.0,8.0,89,0.00,,SKC,0.00,VWS V14.01,2013-02-08 14:20:00,
2013-02-08 08:24:00,25.7,22.9,30.35,ESE,109,3.0,8.0,89,0.00,,SKC,0.00,VWS V14.01,2013-02-08 14:24:00,
2013-02-08 08:29:00,25.6,22.8,30.35,East,97,2.0,8.0,89,0.00,,SKC,0.00,VWS V14.01,2013-02-08 14:29:00,
2013-02-08 08:32:00,25.6,22.8,30.36,East,97,1.0,3.0,89,0.00,,SKC,0.00,VWS V14.01,2013-02-08 14:32:00,
2013-02-08 08:40:00,25.6,22.8,30.35,East,82,1.0,3.0,89,0.00,,SKC,0.00,VWS V14.01,2013-02-08 14:40:00,
2013-02-08 08:44:00,25.7,22.9,30.36,East,85,2.0,3.0,89,0.00,,SKC,0.00,VWS V14.01,2013-02-08 14:44:00,
2013-02-08 08:48:00,25.7,22.9,30.36,East,85,0.0,3.0,89,0.00,,SKC,0.00,VWS V14.01,2013-02-08 14:48:00,
2013-02-08 08:52:00,25.8,23.3,30.35,South,171,6.0,8.0,90,0.00,,SKC,0.00,VWS V14.01,2013-02-08 14:52:00,
2013-02-08 08:56:00,25.8,23.0,30.35,SE,140,7.0,9.0,89,0.00,,SKC,0.00,VWS V14.01,2013-02-08 14:56:00,
2013-02-08 08:59:00,25.8,23.0,30.35,ENE,78,2.0,9.0,89,0.00,,SKC,0.00,VWS V14.01,2013-02-08 14:59:00,
2013-02-08 09:04:00,25.9,23.1,30.35,ESE,104,2.0,4.0,89,0.00,,SKC,0.00,VWS V14.01,2013-02-08 15:04:00,
2013-02-08 09:08:00,26.0,23.2,30.35,East,93,3.0,5.0,89,0.00,,SKC,0.00,VWS V14.01,2013-02-08 15:08:00,
2013-02-08 09:12:00,26.0,23.2,30.35,East,94,3.0,5.0,89,0.00,,SKC,0.00,VWS V14.01,2013-02-08 15:12:00,
2013-02-08 09:20:00,26.2,23.4,30.35,SSE,155,3.0,8.0,89,0.00,,SKC,0.00,VWS V14.01,2013-02-08 15:20:00,
2013-02-08 09:28:00,26.1,23.3,30.35,SE,133,1.0,8.0,89,0.00,,SKC,0.00,VWS V14.01,2013-02-08 15:28:00,
2013-02-08 09:29:00,26.1,23.3,30.35,SSE,163,5.0,8.0,89,0.00,,SKC,0.00,VWS V14.01,2013-02-08 15:29:00,
2013-02-08 09:36:00,26.1,23.3,30.35,SSE,152,7.0,8.0,89,0.00,,SKC,0.00,VWS V14.01,2013-02-08 15:36:00,
2013-02-08 09:40:00,26.2,23.4,30.35,SE,126,0.0,8.0,89,0.00,,SKC,0.00,VWS V14.01,2013-02-08 15:40:00,
2013-02-08 09:44:00,26.3,23.8,30.35,ESE,111,8.0,9.0,90,0.00,,SKC,0.00,VWS V14.01,2013-02-08 15:44:00,
2013-02-08 09:52:00,26.1,23.3,30.36,ESE,103,0.0,9.0,89,0.00,,SKC,0.00,VWS V14.01,2013-02-08 15:52:00,
2013-02-08 09:59:00,26.0,23.5,30.36,East,100,5.0,9.0,90,0.00,,SKC,0.00,VWS V14.01,2013-02-08 15:59:00,
2013-02-08 10:00:00,26.0,23.5,30.36,ESE,115,4.0,7.0,90,0.00,,SKC,0.00,VWS V14.01,2013-02-08 16:00:00,
2013-02-08 10:04:00,26.1,23.6,30.36,ESE,109,5.0,8.0,90,0.00,,SKC,0.00,VWS V14.01,2013-02-08 16:04:00,
2013-02-08 10:12:00,25.9,23.4,30.36,ESE,103,8.0,9.0,90,0.00,,SKC,0.00,VWS V14.01,2013-02-08 16:12:00,
2013-02-08 10:16:00,25.8,23.3,30.36,ESE,106,4.0,9.0,90,0.00,,SKC,0.00,VWS V14.01,2013-02-08 16:16:00,
2013-02-08 10:20:00,25.9,23.6,30.36,ESE,103,5.0,9.0,91,0.00,,SKC,0.00,VWS V14.01,2013-02-08 16:20:00,
2013-02-08 10:28:00,26.0,23.5,30.36,South,182,3.0,9.0,90,0.00,,SKC,0.00,VWS V14.01,2013-02-08 16:28:00,
2013-02-08 10:32:00,26.0,23.5,30.36,SE,134,1.0,6.0,90,0.00,,SKC,0.00,VWS V14.01,2013-02-08 16:32:00,
2013-02-08 10:40:00,26.1,23.6,30.36,SSW,205,1.0,6.0,90,0.00,,SKC,0.00,VWS V14.01,2013-02-08 16:40:00,
2013-02-08 10:44:00,26.2,23.7,30.36,SSE,165,2.0,7.0,90,0.00,,SKC,0.00,VWS V14.01,2013-02-08 16:44:00,
2013-02-08 10:52:00,26.1,23.6,30.37,SSE,162,6.0,10.0,90,0.00,,SKC,0.00,VWS V14.01,2013-02-08 16:52:00,
2013-02-08 10:56:00,26.2,23.7,30.37,South,181,6.0,10.0,90,0.00,,SKC,0.00,VWS V14.01,2013-02-08 16:56:00,
2013-02-08 10:59:00,26.3,23.8,30.37,South,185,2.0,10.0,90,0.00,,SKC,0.00,VWS V14.01,2013-02-08 16:59:00,
2013-02-08 11:04:00,26.4,23.9,30.38,SSE,161,0.0,4.0,90,0.00,,SKC,0.00,VWS V14.01,2013-02-08 17:04:00,
2013-02-08 11:08:00,26.4,23.9,30.38,SSE,155,3.0,5.0,90,0.00,,SKC,0.00,VWS V14.01,2013-02-08 17:08:00,
2013-02-08 11:16:00,26.5,24.0,30.38,ESE,117,3.0,6.0,90,0.00,,SKC,0.00,VWS V14.01,2013-02-08 17:16:00,
2013-02-08 11:24:00,26.8,24.3,30.38,SSE,168,4.0,7.0,90,0.00,,SKC,0.00,VWS V14.01,2013-02-08 17:24:00,
2013-02-08 11:29:00,26.8,24.0,30.38,SSE,160,5.0,8.0,89,0.00,,SKC,0.00,VWS V14.01,2013-02-08 17:29:00,
2013-02-08 11:32:00,26.8,24.0,30.37,ENE,67,0.0,7.0,89,0.00,,SKC,0.00,VWS V14.01,2013-02-08 17:32:00,
2013-02-08 11:36:00,26.8,24.0,30.37,South,173,4.0,7.0,89,0.00,,SKC,0.00,VWS V14.01,2013-02-08 17:36:00,
2013-02-08 11:40:00,26.9,24.1,30.38,SE,141,3.0,7.0,89,0.00,,SKC,0.00,VWS V14.01,2013-02-08 17:40:00,
2013-02-08 11:44:00,27.0,24.2,30.37,SSE,151,5.0,7.0,89,0.00,,SKC,0.00,VWS V14.01,2013-02-08 17:44:00,
2013-02-08 11:53:00,27.3,24.5,30.38,South,188,4.0,10.0,89,0.00,,SKC,0.00,VWS V14.01,2013-02-08 17:53:00,
2013-02-08 11:57:00,27.4,24.6,30.38,SSE,154,4.0,10.0,89,0.00,,SKC,0.00,VWS V14.01,2013-02-08 17:57:00,
2013-02-08 11:59:00,27.4,24.3,30.38,South,191,5.0,10.0,88,0.00,,SKC,0.00,VWS V14.01,2013-02-08 17:59:00,
2013-02-08 12:01:00,27.4,24.3,30.38,South,177,6.0,6.0,88,0.00,,SKC,0.00,VWS V14.01,2013-02-08 18:01:00,
2013-02-08 12:09:00,27.6,24.8,30.37,ESE,112,0.0,8.0,89,0.00,,SKC,0.00,VWS V14.01,2013-02-08 18:09:00,
2013-02-08 12:17:00,27.8,24.7,30.37,SSE,161,6.0,11.0,88,0.00,,SKC,0.00,VWS V14.01,2013-02-08 18:17:00,
2013-02-08 12:21:00,27.8,24.7,30.37,SSE,162,8.0,11.0,88,0.00,,SKC,0.00,VWS V14.01,2013-02-08 18:21:00,
2013-02-08 12:29:00,28.1,25.0,30.36,South,178,2.0,11.0,88,0.00,,SKC,0.00,VWS V14.01,2013-02-08 18:29:00,
2013-02-08 12:33:00,28.1,25.0,30.36,South,184,6.0,13.0,88,0.00,,SKC,0.00,VWS V14.01,2013-02-08 18:33:00,
2013-02-08 12:41:00,28.3,25.2,30.36,SSE,163,10.0,13.0,88,0.00,,SKC,0.00,VWS V14.01,2013-02-08 18:41:00,
2013-02-08 12:45:00,28.1,24.7,30.35,SE,131,8.0,13.0,87,0.00,,SKC,0.00,VWS V14.01,2013-02-08 18:45:00,
2013-02-08 12:53:00,28.3,25.2,30.35,SSE,157,4.0,13.0,88,0.00,,SKC,0.00,VWS V14.01,2013-02-08 18:53:00,
2013-02-08 12:57:00,28.4,25.0,30.34,South,173,7.0,13.0,87,0.00,,SKC,0.00,VWS V14.01,2013-02-08 18:57:00,
2013-02-08 13:01:00,28.5,25.1,30.34,East,91,6.0,9.0,87,0.00,,SKC,0.00,VWS V14.01,2013-02-08 19:01:00,
2013-02-08 13:05:00,28.6,25.2,30.34,SSE,160,0.0,9.0,87,0.00,,SKC,0.00,VWS V14.01,2013-02-08 19:05:00,
2013-02-08 13:09:00,28.8,25.4,30.33,SSE,157,6.0,10.0,87,0.00,,SKC,0.00,VWS V14.01,2013-02-08 19:09:00,
2013-02-08 13:13:00,28.8,25.4,30.33,SSE,148,3.0,10.0,87,0.00,,SKC,0.00,VWS V14.01,2013-02-08 19:13:00,
2013-02-08 13:17:00,28.9,25.2,30.33,SSE,157,12.0,14.0,86,0.00,,SKC,0.00,VWS V14.01,2013-02-08 19:17:00,
2013-02-08 13:21:00,28.6,25.0,30.33,SSE,153,6.0,14.0,86,0.00,,SKC,0.00,VWS V14.01,2013-02-08 19:21:00,
2013-02-08 13:29:00,29.3,25.9,30.32,South,186,6.0,14.0,87,0.00,,SKC,0.00,VWS V14.01,2013-02-08 19:29:00,
2013-02-08 13:37:00,29.3,25.6,30.32,SSE,167,4.0,13.0,86,0.00,,SKC,0.00,VWS V14.01,2013-02-08 19:37:00,
2013-02-08 13:45:00,29.8,26.1,30.31,South,182,5.0,13.0,86,0.00,,SKC,0.00,VWS V14.01,2013-02-08 19:45:00,
2013-02-08 13:49:00,29.9,26.2,30.30,ESE,115,2.0,13.0,86,0.00,,SKC,0.00,VWS V14.01,2013-02-08 19:49:00,
2013-02-08 13:53:00,29.8,25.9,30.30,ENE,58,5.0,13.0,85,0.00,,SKC,0.00,VWS V14.01,2013-02-08 19:53:00,
2013-02-08 13:57:00,29.7,26.0,30.30,SSE,153,7.0,13.0,86,0.00,,SKC,0.00,VWS V14.01,2013-02-08 19:57:00,
2013-02-08 13:59:00,29.8,26.1,30.30,SE,125,11.0,13.0,86,0.00,,SKC,0.00,VWS V14.01,2013-02-08 19:59:00,
2013-02-08 14:05:00,29.7,26.0,30.29,SSE,165,6.0,12.0,86,0.00,,SKC,0.00,VWS V14.01,2013-02-08 20:05:00,
2013-02-08 14:09:00,29.7,25.8,30.29,SSE,150,6.0,12.0,85,0.00,,SKC,0.00,VWS V14.01,2013-02-08 20:09:00,
2013-02-08 14:13:00,29.9,26.2,30.28,SE,146,10.0,12.0,86,0.00,,SKC,0.00,VWS V14.01,2013-02-08 20:13:00,
2013-02-08 14:17:00,30.2,26.2,30.28,SSE,153,9.0,14.0,85,0.00,,SKC,0.00,VWS V14.01,2013-02-08 20:17:00,
2013-02-08 14:21:00,30.1,26.1,30.27,SE,143,10.0,14.0,85,0.00,,SKC,0.00,VWS V14.01,2013-02-08 20:21:00,
2013-02-08 14:25:00,29.9,25.7,30.27,SE,146,9.0,14.0,84,0.00,,SKC,0.00,VWS V14.01,2013-02-08 20:25:00,
2013-02-08 14:29:00,30.2,26.2,30.27,SE,143,10.0,14.0,85,0.00,,SKC,0.00,VWS V14.01,2013-02-08 20:29:00,
2013-02-08 14:33:00,30.5,26.2,30.27,SE,128,2.0,11.0,84,0.00,,SKC,0.00,VWS V14.01,2013-02-08 20:33:00,
2013-02-08 14:41:00,30.9,26.6,30.27,SSW,194,2.0,14.0,84,0.00,,SKC,0.00,VWS V14.01,2013-02-08 20:41:00,
2013-02-08 14:49:00,31.1,26.5,30.27,SSW,209,6.0,14.0,83,0.00,,SKC,0.00,VWS V14.01,2013-02-08 20:49:00,
2013-02-08 14:53:00,30.9,26.6,30.27,SE,134,2.0,14.0,84,0.00,,SKC,0.00,VWS V14.01,2013-02-08 20:53:00,
2013-02-08 14:57:00,31.1,26.8,30.27,SE,134,8.0,14.0,84,0.00,,SKC,0.00,VWS V14.01,2013-02-08 20:57:00,
2013-02-08 15:01:00,31.1,26.5,30.27,SSE,160,9.0,14.0,83,0.00,,SKC,0.00,VWS V14.01,2013-02-08 21:01:00,
2013-02-08 15:05:00,30.9,26.4,30.26,SSE,165,12.0,14.0,83,0.00,,SKC,0.00,VWS V14.01,2013-02-08 21:05:00,
2013-02-08 15:13:00,31.0,26.7,30.26,SE,146,10.0,14.0,84,0.00,,SKC,0.00,VWS V14.01,2013-02-08 21:13:00,
2013-02-08 15:21:00,31.7,27.4,30.26,SE,132,3.0,14.0,84,0.00,,SKC,0.00,VWS V14.01,2013-02-08 21:21:00,
2013-02-08 15:25:00,32.4,27.8,30.26,SSE,147,4.0,14.0,83,0.00,,SKC,0.00,VWS V14.01,2013-02-08 21:25:00,
2013-02-08 15:29:00,32.7,28.1,30.25,SE,127,6.0,14.0,83,0.00,,SKC,0.00,VWS V14.01,2013-02-08 21:29:00,
2013-02-08 15:33:00,32.8,27.6,30.25,SSE,150,10.0,15.0,81,0.00,,SKC,0.00,VWS V14.01,2013-02-08 21:33:00,
2013-02-08 15:37:00,32.6,27.7,30.24,ESE,119,5.0,15.0,82,0.00,,SKC,0.00,VWS V14.01,2013-02-08 21:37:00,
2013-02-08 15:41:00,32.3,27.4,30.24,SE,144,7.0,15.0,82,0.00,,SKC,0.00,VWS V14.01,2013-02-08 21:41:00,
2013-02-08 15:45:00,32.4,27.5,30.24,SSE,154,6.0,15.0,82,0.00,,SKC,0.00,VWS V14.01,2013-02-08 21:45:00,
2013-02-08 15:53:00,32.7,27.5,30.23,SSE,149,11.0,15.0,81,0.00,,SKC,0.00,VWS V14.01,2013-02-08 21:53:00,
2013-02-08 15:57:00,32.8,27.9,30.24,South,188,9.0,15.0,82,0.00,,SKC,0.00,VWS V14.01,2013-02-08 21:57:00,
2013-02-08 15:59:00,32.9,27.7,30.23,SE,130,9.0,15.0,81,0.00,,SKC,0.00,VWS V14.01,2013-02-08 21:59:00,
2013-02-08 16:01:00,33.0,27.8,30.24,SSE,159,8.0,11.0,81,0.00,,SKC,0.00,VWS V14.01,2013-02-08 22:01:00,
2013-02-08 16:09:00,33.1,27.9,30.24,South,189,7.0,14.0,81,0.00,,SKC,0.00,VWS V14.01,2013-02-08 22:09:00,
2013-02-08 16:13:00,33.2,28.3,30.24,SSW,196,6.0,14.0,82,0.00,,SKC,0.00,VWS V14.01,2013-02-08 22:13:00,
2013-02-08 16:21:00,33.4,28.2,30.23,South,188,1.0,14.0,81,0.00,,SKC,0.00,VWS V14.01,2013-02-08 22:21:00,
2013-02-08 16:29:00,33.7,28.5,30.23,SSE,157,8.0,14.0,81,0.00,,SKC,0.00,VWS V14.01,2013-02-08 22:29:00,
2013-02-08 16:33:00,33.7,28.5,30.23,SSE,161,7.0,13.0,81,0.00,,SKC,0.00,VWS V14.01,2013-02-08 22:33:00,
2013-02-08 16:37:00,33.7,28.2,30.23,SE,126,8.0,13.0,80,0.00,,SKC,0.00,VWS V14.01,2013-02-08 22:37:00,
2013-02-08 16:45:00,33.4,28.2,30.23,SSE,152,5.0,13.0,81,0.00,,SKC,0.00,VWS V14.01,2013-02-08 22:45:00,
2013-02-08 16:53:00,33.4,27.9,30.23,SE,140,11.0,15.0,80,0.00,,SKC,0.00,VWS V14.01,2013-02-08 22:53:00,
2013-02-08 16:58:00,33.3,27.8,30.23,SSE,164,10.0,15.0,80,0.00,,SKC,0.00,VWS V14.01,2013-02-08 22:58:00,
2013-02-08 17:02:00,33.1,27.6,30.23,SSE,160,9.0,14.0,80,0.00,,SKC,0.00,VWS V14.01,2013-02-08 23:02:00,
2013-02-08 17:06:00,33.0,27.8,30.23,SSE,165,7.0,14.0,81,0.00,,SKC,0.00,VWS V14.01,2013-02-08 23:06:00,
2013-02-08 17:14:00,32.8,27.6,30.22,SSE,154,8.0,14.0,81,0.00,,SKC,0.00,VWS V14.01,2013-02-08 23:14:00,
2013-02-08 17:18:00,32.7,27.5,30.22,SSW,209,9.0,14.0,81,0.00,,SKC,0.00,VWS V14.01,2013-02-08 23:18:00,
2013-02-08 17:22:00,32.7,27.8,30.22,SSE,153,5.0,14.0,82,0.00,,SKC,0.00,VWS V14.01,2013-02-08 23:22:00,
2013-02-08 17:26:00,32.6,27.7,30.22,ESE,113,5.0,14.0,82,0.00,,SKC,0.00,VWS V14.01,2013-02-08 23:26:00,
2013-02-08 17:29:00,32.5,27.6,30.22,SSE,150,2.0,14.0,82,0.00,,SKC,0.00,VWS V14.01,2013-02-08 23:29:00,
2013-02-08 17:30:00,32.5,27.6,30.22,SSE,155,1.0,5.0,82,0.00,,SKC,0.00,VWS V14.01,2013-02-08 23:30:00,
2013-02-08 17:38:00,32.3,27.7,30.22,ESE,121,3.0,7.0,83,0.00,,SKC,0.00,VWS V14.01,2013-02-08 23:38:00,
2013-02-08 17:42:00,32.1,27.5,30.22,East,85,2.0,9.0,83,0.00,,SKC,0.00,VWS V14.01,2013-02-08 23:42:00,
2013-02-08 17:50:00,31.9,27.6,30.21,East,95,3.0,9.0,84,0.00,,SKC,0.00,VWS V14.01,2013-02-08 23:50:00,
2013-02-08 17:54:00,31.9,27.6,30.21,East,95,8.0,11.0,84,0.00,,SKC,0.00,VWS V14.01,2013-02-08 23:54:00,
2013-02-08 17:58:00,31.8,27.5,30.20,ESE,123,10.0,11.0,84,0.00,,SKC,0.00,VWS V14.01,2013-02-08 23:58:00,
2013-02-08 17:59:00,31.8,27.8,30.20,East,96,8.0,11.0,85,0.00,,SKC,0.00,VWS V14.01,2013-02-08 23:59:00,
2013-02-08 18:02:00,31.8,27.8,30.20,SE,124,6.0,10.0,85,0.00,,SKC,0.00,VWS V14.01,2013-02-09 00:02:00,
2013-02-08 18:06:00,31.9,27.9,30.20,ESE,114,9.0,13.0,85,0.00,,SKC,0.00,VWS V14.01,2013-02-09 00:06:00,
2013-02-08 18:10:00,31.9,27.9,30.20,SE,124,3.0,13.0,85,0.00,,SKC,0.00,VWS V14.01,2013-02-09 00:10:00,
2013-02-08 18:18:00,31.9,27.9,30.20,East,97,7.0,13.0,85,0.00,,SKC,0.00,VWS V14.01,2013-02-09 00:18:00,
2013-02-08 18:22:00,31.9,27.9,30.20,ESE,109,5.0,13.0,85,0.00,,SKC,0.00,VWS V14.01,2013-02-09 00:22:00,
2013-02-08 18:26:00,31.7,27.7,30.21,East,101,6.0,13.0,85,0.00,,SKC,0.00,VWS V14.01,2013-02-09 00:26:00,
2013-02-08 18:29:00,31.6,27.6,30.20,East,97,5.0,13.0,85,0.00,,SKC,0.00,VWS V14.01,2013-02-09 00:29:00,
2013-02-08 18:34:00,31.4,27.7,30.21,East,94,6.0,9.0,86,0.00,,SKC,0.00,VWS V14.01,2013-02-09 00:34:00,
2013-02-08 18:38:00,31.1,27.4,30.20,East,92,5.0,9.0,86,0.00,,SKC,0.00,VWS V14.01,2013-02-09 00:38:00,
2013-02-08 18:46:00,30.9,27.5,30.21,ESE,108,3.0,9.0,87,0.00,,SKC,0.00,VWS V14.01,2013-02-09 00:46:00,
2013-02-08 18:50:00,31.0,27.6,30.21,East,92,2.0,10.0,87,0.00,,SKC,0.00,VWS V14.01,2013-02-09 00:50:00,
2013-02-08 18:54:00,31.0,27.6,30.21,SE,146,1.0,11.0,87,0.00,,SKC,0.00,VWS V14.01,2013-02-09 00:54:00,
2013-02-08 18:59:00,30.8,27.4,30.21,East,92,5.0,11.0,87,0.00,,SKC,0.00,VWS V14.01,2013-02-09 00:59:00,
2013-02-08 19:06:00,30.7,27.3,30.20,East,80,6.0,7.0,87,0.00,,SKC,0.00,VWS V14.01,2013-02-09 01:06:00,
2013-02-08 19:14:00,30.7,27.6,30.20,East,86,3.0,9.0,88,0.00,,SKC,0.00,VWS V14.01,2013-02-09 01:14:00,
2013-02-08 19:22:00,30.6,27.5,30.20,East,90,6.0,9.0,88,0.00,,SKC,0.00,VWS V14.01,2013-02-09 01:22:00,
2013-02-08 19:26:00,30.7,27.6,30.20,SSW,201,2.0,9.0,88,0.00,,SKC,0.00,VWS V14.01,2013-02-09 01:26:00,
2013-02-08 19:34:00,30.7,27.6,30.19,ESE,117,1.0,8.0,88,0.00,,SKC,0.00,VWS V14.01,2013-02-09 01:34:00,
2013-02-08 19:42:00,30.7,27.6,30.19,South,187,2.0,10.0,88,0.00,,SKC,0.00,VWS V14.01,2013-02-09 01:42:00,
2013-02-08 19:46:00,30.5,27.1,30.19,South,187,5.0,10.0,87,0.00,,SKC,0.00,VWS V14.01,2013-02-09 01:46:00,
2013-02-08 19:54:00,30.5,27.4,30.19,East,85,2.0,13.0,88,0.00,,SKC,0.00,VWS V14.01,2013-02-09 01:54:00,
2013-02-08 19:59:00,30.3,26.9,30.19,East,90,5.0,13.0,87,0.00,,SKC,0.00,VWS V14.01,2013-02-09 01:59:00,
2013-02-08 20:02:00,30.2,27.1,30.19,ESE,111,3.0,8.0,88,0.00,,SKC,0.00,VWS V14.01,2013-02-09 02:02:00,
2013-02-08 20:06:00,30.2,27.1,30.19,WNW,298,0.0,8.0,88,0.00,,SKC,0.00,VWS V14.01,2013-02-09 02:06:00,
2013-02-08 20:14:00,30.1,27.0,30.18,SE,141,3.0,10.0,88,0.00,,SKC,0.00,VWS V14.01,2013-02-09 02:14:00,
2013-02-08 20:18:00,30.0,26.9,30.18,SE,130,7.0,10.0,88,0.00,,SKC,0.00,VWS V14.01,2013-02-09 02:18:00,
2013-02-08 20:26:00,29.8,27.0,30.18,South,188,3.0,11.0,89,0.00,,SKC,0.00,VWS V14.01,2013-02-09 02:26:00,
2013-02-08 20:29:00,29.7,26.9,30.18,SSE,165,5.0,11.0,89,0.00,,SKC,0.00,VWS V14.01,2013-02-09 02:29:00,
2013-02-08 20:34:00,29.7,26.9,30.18,SE,146,3.0,11.0,89,0.00,,SKC,0.00,VWS V14.01,2013-02-09 02:34:00,
2013-02-08 20:38:00,29.6,26.8,30.18,South,170,4.0,11.0,89,0.00,,SKC,0.00,VWS V14.01,2013-02-09 02:38:00,
2013-02-08 20:42:00,29.4,26.6,30.18,SSE,153,6.0,11.0,89,0.00,,SKC,0.00,VWS V14.01,2013-02-09 02:42:00,
2013-02-08 20:46:00,29.4,26.6,30.18,SE,141,2.0,11.0,89,0.00,,SKC,0.00,VWS V14.01,2013-02-09 02:46:00,
2013-02-08 20:50:00,29.3,26.5,30.18,SE,131,4.0,11.0,89,0.00,,SKC,0.00,VWS V14.01,2013-02-09 02:50:00,
2013-02-08 20:58:00,29.2,26.4,30.17,WSW,258,1.0,11.0,89,0.00,,SKC,0.00,VWS V14.01,2013-02-09 02:58:00,
2013-02-08 21:06:00,29.0,26.2,30.17,South,178,4.0,9.0,89,0.00,,SKC,0.00,VWS V14.01,2013-02-09 03:06:00,
2013-02-08 21:10:00,28.9,26.1,30.16,SE,136,4.0,9.0,89,0.00,,SKC,0.00,VWS V14.01,2013-02-09 03:10:00,
2013-02-08 21:14:00,29.0,26.4,30.17,SE,145,2.0,9.0,90,0.00,,SKC,0.00,VWS V14.01,2013-02-09 03:14:00,
2013-02-08 21:18:00,29.1,26.3,30.17,South,189,5.0,9.0,89,0.00,,SKC,0.00,VWS V14.01,2013-02-09 03:18:00,
2013-02-08 21:26:00,29.2,26.4,30.16,SE,133,5.0,10.0,89,0.00,,SKC,0.00,VWS V14.01,2013-02-09 03:26:00,
2013-02-08 21:30:00,29.3,26.5,30.16,South,185,5.0,14.0,89,0.00,,SKC,0.00,VWS V14.01,2013-02-09 03:30:00,
2013-02-08 21:38:00,29.5,26.7,30.16,SSW,206,2.0,14.0,89,0.00,,SKC,0.00,VWS V14.01,2013-02-09 03:38:00,
2013-02-08 21:42:00,29.6,26.5,30.17,SSE,164,5.0,14.0,88,0.00,,SKC,0.00,VWS V14.01,2013-02-09 03:42:00,
2013-02-08 21:46:00,29.6,26.5,30.17,South,175,5.0,14.0,88,0.00,,SKC,0.00,VWS V14.01,2013-02-09 03:46:00,
2013-02-08 21:54:00,29.7,26.6,30.17,SE,128,9.0,14.0,88,0.00,,SKC,0.00,VWS V14.01,2013-02-09 03:54:00,
2013-02-08 21:58:00,29.9,26.8,30.17,SE,130,5.0,14.0,88,0.00,,SKC,0.00,VWS V14.01,2013-02-09 03:58:00,
2013-02-08 22:02:00,30.1,27.0,30.17,SSE,156,7.0,11.0,88,0.00,,SKC,0.00,VWS V14.01,2013-02-09 04:02:00,
2013-02-08 22:06:00,30.2,26.8,30.18,South,178,11.0,14.0,87,0.00,,SKC,0.00,VWS V14.01,2013-02-09 04:06:00,
2013-02-08 22:14:00,30.2,26.8,30.18,South,175,6.0,14.0,87,0.00,,SKC,0.00,VWS V14.01,2013-02-09 04:14:00,
2013-02-08 22:22:00,30.1,26.7,30.18,ESE,103,7.0,14.0,87,0.00,,SKC,0.00,VWS V14.01,2013-02-09 04:22:00,
2013-02-08 22:26:00,30.2,26.8,30.18,SE,145,7.0,14.0,87,0.00,,SKC,0.00,VWS V14.01,2013-02-09 04:26:00,
2013-02-08 22:29:00,30.2,26.8,30.18,SSE,165,6.0,14.0,87,0.00,,SKC,0.00,VWS V14.01,2013-02-09 04:29:00,
2013-02-08 22:34:00,30.0,26.6,30.18,ESE,123,5.0,10.0,87,0.00,,SKC,0.00,VWS V14.01,2013-02-09 04:34:00,
2013-02-08 22:42:00,29.9,26.5,30.18,SE,136,4.0,11.0,87,0.00,,SKC,0.00,VWS V14.01,2013-02-09 04:42:00,
2013-02-08 22:50:00,29.8,26.4,30.18,SE,129,6.0,11.0,87,0.00,,SKC,0.00,VWS V14.01,2013-02-09 04:50:00,
2013-02-08 22:54:00,29.8,26.4,30.18,SE,146,6.0,11.0,87,0.00,,SKC,0.00,VWS V14.01,2013-02-09 04:54:00,
2013-02-08 22:59:00,29.6,26.2,30.18,SE,135,6.0,11.0,87,0.00,,SKC,0.00,VWS V14.01,2013-02-09 04:59:00,
2013-02-08 23:02:00,29.4,26.3,30.18,SSE,148,4.0,8.0,88,0.00,,SKC,0.00,VWS V14.01,2013-02-09 05:02:00,
2013-02-08 23:07:00,29.4,26.3,30.18,South,183,5.0,10.0,88,0.00,,SKC,0.00,VWS V14.01,2013-02-09 05:07:00,
2013-02-08 23:15:00,29.4,26.3,30.18,SSE,159,9.0,11.0,88,0.00,,SKC,0.00,VWS V14.01,2013-02-09 05:15:00,
2013-02-08 23:19:00,29.5,26.4,30.18,South,183,8.0,12.0,88,0.00,,SKC,0.00,VWS V14.01,2013-02-09 05:19:00,
2013-02-08 23:23:00,29.5,26.4,30.18,SSE,148,8.0,12.0,88,0.00,,SKC,0.00,VWS V14.01,2013-02-09 05:23:00,
2013-02-08 23:29:00,29.8,27.0,30.18,South,180,8.0,13.0,89,0.00,,SKC,0.00,VWS V14.01,2013-02-09 05:29:00,
2013-02-08 23:31:00,29.8,27.0,30.18,South,180,8.0,8.0,89,0.00,,SKC,0.00,VWS V14.01,2013-02-09 05:31:00,
2013-02-08 23:35:00,29.8,26.7,30.19,SE,141,9.0,11.0,88,0.00,,SKC,0.00,VWS V14.01,2013-02-09 05:35:00,
2013-02-08 23:43:00,29.6,26.5,30.18,SSE,160,6.0,12.0,88,0.00,,SKC,0.00,VWS V14.01,2013-02-09 05:43:00,
2013-02-08 23:47:00,29.5,26.7,30.18,South,180,6.0,12.0,89,0.00,,SKC,0.00,VWS V14.01,2013-02-09 05:47:00,
2013-02-08 23:55:00,29.4,26.6,30.18,SSE,159,6.0,12.0,89,0.00,,SKC,0.00,VWS V14.01,2013-02-09 05:55:00,
2013-02-08 23:59:00,29.3,26.5,30.18,SSE,160,7.0,12.0,89,0.00,,SKC,0.00,VWS V14.01,2013-02-09 05:59:00,